Weather History for Cadillac, MI

Change the Weather History Date:

Saturday, May 25, 2013

  Actual Average Record
Temperature  
Mean Temperature 46 °F -  
Max Temperature 64 °F 70 °F 87 °F (1972)
Min Temperature 28 °F 44 °F 22 °F (1992)
Degree Days  
Heating Degree Days 19    
Moisture  
Dew Point 31 °F    
Average Humidity 57    
Maximum Humidity 91    
Minimum Humidity 25    
Precipitation  
Precipitation 0.00 in - - ()
Sea Level Pressure  
Sea Level Pressure 30.33 in    
Wind  
Wind Speed 2 mph (NE)    
Max Wind Speed 12 mph    
Max Gust Speed -    
Visibility 10 miles    
Events      
Averages and records for this station are not official NWS values.
T = Trace of Precipitation, MM = Missing Value Source: NWS Daily Summary

Daily Weather History Graph

Daily Weather History Graph

Search for Another Location

Airport:

Trip Planner

Search our weather history database for the weather conditions in past years. The results will help you decide how hot, cold, wet, or windy it might be!

Date:

Astronomy

May. 25, 2013 Rise Set
Actual Time 6:05 AM EDT 9:12 PM EDT
Civil Twilight 5:30 AM EDT 9:47 PM EDT
Nautical Twilight 4:45 AM EDT 10:32 PM EDT
Astronomical Twilight 3:51 AM EDT 11:27 PM EDT
Moon 9:59 PM EDT (5/25) 6:32 AM EDT (5/25)
Length of Visible Light 16h 17m
Length of Day
15h 07m
Full, 100% of the Moon is Illuminated
May 25
Full
May 31
Last Quarter
Jun 8
New
Jun 16
First Quarter
Jun 23
Full

Hourly Weather History & Observations

Time (EDT) Temp. Windchill Dew Point Humidity Pressure Visibility Wind Dir Wind Speed Gust Speed Precip Events Conditions
12:15 AM 38.7 °F - 31.1 °F 74% 30.34 in 10.0 mi Calm Calm - N/A   Clear
12:35 AM 36.1 °F - 30.4 °F 80% 30.34 in 10.0 mi Calm Calm - N/A   Clear
12:55 AM 36.1 °F - 31.6 °F 84% 30.33 in 10.0 mi Calm Calm - N/A   Clear
1:14 AM 33.8 °F - 30.6 °F 88% 30.32 in 10.0 mi Calm Calm - N/A   Clear
1:35 AM 33.1 °F - 30.4 °F 90% 30.33 in 10.0 mi Calm Calm - N/A   Clear
1:55 AM 33.8 °F - 31.1 °F 90% 30.32 in 10.0 mi Calm Calm - N/A   Clear
2:14 AM 32.4 °F - 29.7 °F 90% 30.32 in 10.0 mi Calm Calm - N/A   Clear
2:35 AM 32.2 °F - 29.8 °F 91% 30.32 in 10.0 mi Calm Calm - N/A   Clear
2:55 AM 32.0 °F - 29.5 °F 90% 30.32 in 10.0 mi Calm Calm - N/A   Clear
3:14 AM 31.5 °F - 28.6 °F 89% 30.32 in 10.0 mi Calm Calm - N/A   Clear
3:35 AM 31.5 °F - 28.8 °F 90% 30.33 in 10.0 mi Calm Calm - N/A   Clear
3:55 AM 31.5 °F - 28.6 °F 89% 30.33 in 10.0 mi Calm Calm - N/A   Clear
4:14 AM 31.5 °F - 28.8 °F 90% 30.32 in 10.0 mi Calm Calm - N/A   Clear
4:35 AM 31.5 °F - 28.8 °F 90% 30.32 in 10.0 mi Calm Calm - N/A   Clear
4:55 AM 31.5 °F - 28.4 °F 88% 30.33 in 10.0 mi Calm Calm - N/A   Clear
5:14 AM 31.5 °F - 28.8 °F 90% 30.34 in 10.0 mi Calm Calm - N/A   Clear
5:35 AM 31.5 °F - 28.9 °F 90% 30.34 in 10.0 mi Calm Calm - N/A   Clear
5:55 AM 28.4 °F - 25.7 °F 90% 30.34 in 10.0 mi Calm Calm - N/A   Clear
6:14 AM 31.5 °F - 28.9 °F 90% 30.33 in 4.0 mi Calm Calm - N/A   Clear
6:35 AM 31.5 °F - 28.8 °F 90% 30.33 in 10.0 mi Calm Calm - N/A   Clear
6:55 AM 31.5 °F - 28.4 °F 88% 30.34 in 10.0 mi Calm Calm - N/A   Clear
7:15 AM 33.8 °F - 30.9 °F 89% 30.34 in 10.0 mi Calm Calm - N/A   Clear
7:35 AM 36.1 °F - 32.2 °F 86% 30.35 in 10.0 mi Calm Calm - N/A   Clear
7:55 AM 38.7 °F - 33.8 °F 83% 30.36 in 10.0 mi Calm Calm - N/A   Clear
8:15 AM 42.1 °F - 34.3 °F 74% 30.37 in 10.0 mi Calm Calm - N/A   Clear
8:35 AM 44.2 °F - 33.4 °F 66% 30.38 in 10.0 mi Calm Calm - N/A   Clear
8:55 AM 47.5 °F - 32.0 °F 55% 30.38 in 10.0 mi North 4.6 mph - N/A   Clear
9:15 AM 50.2 °F - 32.5 °F 51% 30.40 in 10.0 mi Calm Calm - N/A   Clear
9:35 AM 51.4 °F - 32.4 °F 48% 30.40 in 10.0 mi Calm Calm - N/A   Clear
9:54 AM 51.4 °F - 32.2 °F 48% 30.39 in 10.0 mi Calm Calm - N/A   Clear
10:15 AM 52.7 °F - 32.4 °F 46% 30.37 in 10.0 mi NNE 4.6 mph - N/A   Clear
10:35 AM 54.0 °F - 33.3 °F 46% 30.37 in 10.0 mi NNE 4.6 mph - N/A   Clear
10:54 AM 56.5 °F - 33.3 °F 42% 30.36 in 10.0 mi ENE 6.9 mph - N/A   Clear
11:15 AM 56.5 °F - 32.9 °F 41% 30.36 in 10.0 mi NE 5.8 mph - N/A   Clear
11:35 AM 56.5 °F - 30.2 °F 37% 30.36 in 10.0 mi SE 3.5 mph - N/A   Clear
11:54 AM 57.0 °F - 31.5 °F 38% 30.36 in 10.0 mi East 8.1 mph - N/A   Clear
12:15 PM 59.0 °F - 32.7 °F 37% 30.36 in 10.0 mi East 9.2 mph - N/A   Clear
12:35 PM 59.0 °F - 32.2 °F 36% 30.36 in 10.0 mi ESE 4.6 mph - N/A   Clear
12:54 PM 59.0 °F - 30.6 °F 34% 30.35 in 10.0 mi Calm Calm - N/A   Clear
1:15 PM 61.0 °F - 32.9 °F 35% 30.35 in 10.0 mi East 5.8 mph - N/A   Clear
1:35 PM 59.0 °F - 28.6 °F 31% 30.35 in 10.0 mi Calm Calm - N/A   Clear
1:54 PM 61.7 °F - 30.9 °F 31% 30.35 in 10.0 mi WNW 4.6 mph - N/A   Clear
2:15 PM 61.7 °F - 30.6 °F 31% 30.34 in 10.0 mi ENE 4.6 mph - N/A   Clear
2:35 PM 61.7 °F - 31.8 °F 33% 30.34 in 10.0 mi East 4.6 mph - N/A   Clear
2:54 PM 62.6 °F - 30.0 °F 29% 30.33 in 10.0 mi Calm Calm - N/A   Clear
3:15 PM 62.1 °F - 31.5 °F 32% 30.32 in 10.0 mi ENE 6.9 mph - N/A   Clear
3:35 PM 61.9 °F - 29.3 °F 29% 30.32 in 10.0 mi SSW 3.5 mph - N/A   Clear
3:54 PM 63.7 °F - 30.9 °F 29% 30.31 in 10.0 mi South 3.5 mph - N/A   Scattered Clouds
4:15 PM 64.0 °F - 31.1 °F 29% 30.30 in 10.0 mi SSW 4.6 mph - N/A   Scattered Clouds
4:35 PM 64.0 °F - 31.8 °F 30% 30.30 in 10.0 mi East 6.9 mph - N/A   Scattered Clouds
4:55 PM 62.8 °F - 29.7 °F 29% 30.30 in 10.0 mi NE 3.5 mph - N/A   Scattered Clouds
5:15 PM 64.0 °F - 29.7 °F 27% 30.29 in 10.0 mi NE 6.9 mph - N/A   Clear
5:34 PM 63.7 °F - 29.5 °F 28% 30.29 in 10.0 mi NNE 6.9 mph - N/A   Clear
5:55 PM 63.9 °F - 28.8 °F 27% 30.28 in 10.0 mi NNE 3.5 mph - N/A   Clear
6:15 PM 63.3 °F - 26.2 °F 25% 30.29 in 10.0 mi NNW 4.6 mph - N/A   Clear
6:34 PM 62.6 °F - 34.0 °F 34% 30.29 in 10.0 mi North 6.9 mph - N/A   Clear
6:55 PM 61.7 °F - 32.2 °F 33% 30.29 in 10.0 mi North 6.9 mph - N/A   Clear
7:15 PM 61.7 °F - 32.7 °F 34% 30.28 in 10.0 mi North 9.2 mph - N/A   Clear
7:34 PM 61.3 °F - 34.0 °F 36% 30.28 in 10.0 mi North 9.2 mph - N/A   Clear
7:55 PM 59.0 °F - 32.9 °F 37% 30.28 in 10.0 mi NNE 11.5 mph - N/A   Clear
8:15 PM 59.0 °F - 34.0 °F 39% 30.28 in 10.0 mi North 10.4 mph - N/A   Clear
8:35 PM 56.5 °F - 33.8 °F 42% 30.28 in 10.0 mi North 4.6 mph - N/A   Clear
8:55 PM 56.5 °F - 35.1 °F 45% 30.28 in 10.0 mi North 4.6 mph - N/A   Clear
9:15 PM 54.0 °F - 34.7 °F 48% 30.28 in 10.0 mi North 3.5 mph - N/A   Clear
9:35 PM 51.4 °F - 33.8 °F 51% 30.28 in 10.0 mi NNE 3.5 mph - N/A   Clear
9:55 PM 51.4 °F - 34.5 °F 52% 30.28 in 10.0 mi North 3.5 mph - N/A   Clear
10:14 PM 51.4 °F - 35.2 °F 54% 30.29 in 10.0 mi NNE 4.6 mph - N/A   Clear
10:35 PM 51.4 °F - 35.1 °F 54% 30.30 in 10.0 mi North 4.6 mph - N/A   Clear
10:55 PM 49.6 °F - 34.0 °F 55% 30.30 in 10.0 mi North 3.5 mph - N/A   Clear
11:14 PM 49.1 °F - 33.4 °F 55% 30.30 in 10.0 mi Calm Calm - N/A   Clear
11:35 PM 45.0 °F - 33.8 °F 65% 30.31 in 10.0 mi Calm Calm - N/A   Clear
11:55 PM 45.5 °F 44.2 °F 33.8 °F 64% 30.31 in 10.0 mi NE 3.5 mph - N/A   Clear